Retour au catalogue

STARLINK-32833

ActifCommunicationsVLEO
NORAD 62873·PAYLOAD·🇺🇸 United States

Lancé Feb 1, 2025 depuis Vandenberg Space Force Base

Loading…

Prochains Passages (prochaines 24 heures)

TLE

FraisSource: CelesTrak SupGP

Époque: Sep 15, 2026, 03:02 UTC

1 62873C 25022V   26258.12687500  .00055171  00000+0  16296-2 0  2581
2 62873  53.1595 326.6816 0001251  89.1709  10.4078 15.34371717    11

Suivez STARLINK-32833 en temps réel avec AllMySat

Download on the App Store